DW7061 Weather Reports


time (UTC)temp
C
wind
direction
speed
KPH
gust
KPH
rain 1hr
cm
rain 24hr
cm
rain mn
cm
humidity
%
barometer
mb
20260504175037 19 248 6.4 12.9 0.00 0.00 0.00 37 1008.0
20260504174038 18 248 6.4 16.1 0.00 0.00 0.00 37 1007.9
20260504173018 18 248 4.8 14.5 0.00 0.00 0.00 35 1007.9
20260504172017 18 248 6.4 16.1 0.00 0.00 0.00 35 1008.0
20260504171018 18 248 8.0 16.1 0.00 0.00 0.00 35 1008.2
20260504151018 15 248 8.0 17.7 0.00 0.00 0.00 42 1009.4
20260504141037 13 248 1.6 11.3 0.00 0.00 0.00 52 1009.7
20260504081017 6 0.0 0.0 0.00 0.00 0.00 61 1009.7
20260504050017 6 0.0 1.6 0.00 0.00 0.00 59 1009.8
20260504045038 6 0.0 1.6 0.00 0.00 0.00 58 1009.9
20260504044017 6 0.0 0.0 0.00 0.00 0.00 58 1009.8
20260504043017 6 0.0 0.0 0.00 0.00 0.00 57 1009.8
20260504042017 6 0.0 0.0 0.00 0.00 0.00 56 1009.9
20260504041018 6 0.0 1.6 0.00 0.00 0.00 56 1009.8
20260504040020 6 0.0 1.6 0.00 0.00 0.00 55 1009.9
20260504035016 6 0.0 0.0 0.00 0.00 0.00 54 1009.7
20260504034016 6 0.0 0.0 0.00 0.00 0.00 53 1009.5
20260504033016 6 0.0 0.0 0.00 0.00 0.00 53 1009.4
20260504032037 6 0.0 1.6 0.00 0.00 0.00 52 1009.4
20260504031016 6 0.0 0.0 0.00 0.00 0.00 52 1009.3
20260504030036 6 0.0 1.6 0.00 0.00 0.00 51 1009.3
20260504025036 6 0.0 1.6 0.00 0.00 0.00 51 1009.2
20260504024017 6 0.0 1.6 0.00 0.00 0.00 50 1009.3
20260504023036 6 0.0 1.6 0.00 0.00 0.00 49 1009.3
20260504022016 6 0.0 1.6 0.00 0.00 0.00 48 1009.2
20260504021037 6 0.0 4.8 0.00 0.00 0.00 47 1009.1
20260504020016 6 0.0 3.2 0.00 0.00 0.00 47 1009.0
20260504015016 6 0.0 1.6 0.00 0.00 0.00 46 1008.8
20260504014016 6 0.0 3.2 0.00 0.00 0.00 46 1008.7
20260504013056 6 0.0 0.0 0.00 0.00 0.00 46 1008.6
20260504012016 6 248 1.6 8.0 0.00 0.00 0.00 47 1008.5
20260504011036 6 0.0 3.2 0.00 0.00 0.00 49 1008.4
20260504010016 6 0.0 1.6 0.00 0.00 0.00 52 1008.2
20260504005017 6 0.0 0.0 0.00 0.00 0.00 53 1008.1
20260504004016 6 0.0 0.0 0.00 0.00 0.00 53 1007.9
20260504003016 6 0.0 0.0 0.00 0.00 0.00 52 1007.7
20260504002016 6 0.0 0.0 0.00 0.00 0.00 51 1007.7
20260504001037 7 0.0 0.0 0.00 0.00 0.00 50 1007.7
20260504000016 7 0.0 0.0 0.00 0.00 0.00 49 1007.5
20260503235016 7 0.0 1.6 0.00 0.00 0.00 47 1007.5
20260503234016 8 0.0 4.8 0.00 0.00 0.00 46 1007.4
20260503233017 8 0.0 4.8 0.00 0.00 0.00 45 1007.3
20260503232016 8 0.0 3.2 0.00 0.00 0.00 45 1007.3
20260503231036 8 0.0 4.8 0.00 0.00 0.00 44 1007.3
20260503230016 8 248 1.6 6.4 0.00 0.00 0.00 44 1007.2
20260503225017 9 270 1.6 8.0 0.00 0.00 0.00 44 1007.1
20260503224016 8 0.0 6.4 0.00 0.00 0.00 45 1007.1
20260503223016 8 0.0 4.8 0.00 0.00 0.00 44 1007.1
20260503222016 9 0.0 3.2 0.00 0.00 0.00 44 1007.1
20260503221057 9 270 1.6 6.4 0.00 0.00 0.00 43 1007.0
20260503220016 8 270 1.6 6.4 0.00 0.00 0.00 44 1007.1
20260503215016 8 248 4.8 11.3 0.00 0.00 0.00 44 1007.0
20260503214016 8 248 3.2 12.9 0.00 0.00 0.00 45 1007.0
20260503213017 8 45 1.6 11.3 0.00 0.00 0.00 45 1007.0
20260503212016 9 270 4.8 17.7 0.00 0.00 0.00 42 1007.0
20260503211016 9 270 1.6 9.7 0.00 0.00 0.00 42 1006.8
20260503210016 9 248 3.2 9.7 0.00 0.00 0.00 42 1006.6
20260503205516 9 270 1.6 12.9 0.00 0.00 0.00 42 1006.7
20260503204516 9 248 4.8 16.1 0.00 0.00 0.00 41 1006.6
20260503203536 8 248 1.6 9.7 0.00 0.00 0.00 43 1006.6
20260503202516 8 248 4.8 14.5 0.00 0.00 0.00 43 1006.5
20260503201516 8 248 3.2 9.7 0.00 0.00 0.00 43 1006.3
20260503200516 8 270 3.2 14.5 0.00 0.00 0.00 43 1006.4
20260503195516 8 225 4.8 19.3 0.00 0.00 0.00 43 1006.4
20260503194518 8 270 3.2 12.9 0.00 0.00 0.00 44 1006.6
20260503193516 8 248 3.2 9.7 0.00 0.00 0.00 44 1006.6
20260503192517 8 248 4.8 12.9 0.00 0.00 0.00 45 1006.6
20260503191515 8 248 3.2 14.5 0.00 0.00 0.00 45 1006.5
20260503190516 8 248 1.6 9.7 0.00 0.00 0.00 45 1006.5
20260503185516 8 248 4.8 16.1 0.00 0.00 0.00 47 1006.5
20260503184536 8 248 4.8 16.1 0.00 0.00 0.00 47 1006.5
20260503183516 8 270 3.2 14.5 0.00 0.00 0.00 47 1006.5
20260503182536 9 248 4.8 14.5 0.00 0.00 0.00 45 1006.3
20260503181537 9 270 1.6 6.4 0.00 0.00 0.00 46 1006.5
20260503180516 8 270 3.2 14.5 0.00 0.00 0.00 49 1006.4